VANGUARD DEB, 69999

Orbit data source: Space-Track

VANGUARD DEB, 69999 is space debris in LEO originally from a launch on Mon, 17 Mar 1958 UTC launched from the Air Force Eastern Test Range (AFETR). Debris objects in space refer to the collection of defunct objects orbiting the Earth. Examples of debris include non-operational satellites, rocket bodies, and fragments generated from explosions, collisions, or faulty payload assembly.

Loading next visibility...
Identifier
69999, 1958-002D
Orbit
LEO
Country
Flag of USUS
Related business
Manufacturer
NRL
Mission
Spacecraft
Bus & Motor
Unknown
Mass
Unknown
Launch date (UTC)
1958-03-17 (68 years ago)
Launch vehicle
Unknown
Launch site
Air Force Eastern Test Range (AFETR)
Object type
Payload
Rocket body
Debris
Shape & HBR
Unknown shape, 1.1 m
Radar Cross Section
Small (<0.1 m²)

Expand to show TLE details & history
Last TLE update: 2 weeks ago

TLE from 2 weeks ago
0 VANGUARD DEB
1 69999U 58002D   26233.95621373 -.00000098  00000-0 -11055-3 0  9993
2 69999  34.2389 185.6241 1484084 248.2143  95.4350 11.62370387194450
Epoch: 2026-08-21T22:56Z
TLE epoch observation values (Epoch: 2026-08-21T22:56:56.866Z)
Latitude
Longitude
-128.88638°
Altitude
2,142.02 km
Speed
6.721 km/s
True Right ascension
12h 22m 29s
True Declination
0° 00' 00"
Sunlit
Object was in daylight at epoch
Visualization orbit readout
Latitude
Unknown
Longitude
Unknown
Altitude
Unknown
Speed
Unknown
Apparent Right ascension
Unknown
Apparent Declination
Unknown
Sunlit
N/A
Visualization observer readout
Local Sidereal Time
19:54:10
Azimuth
Unknown
Elevation
Unknown
Doppler factor
Unknown
Orbital elements
Apogee altitude
3,078.906 km
Perigee altitude
634.646 km
Semi-major axis
8,234.913 km
Eccentricity
0.14841
Inclination
34.2389°
RAAN
185.6241°
Arg. of periapsis
248.2143°
True anomaly
111.84577°
Mean anomaly
95.435°
Eccentric anomaly
103.69638°
Mean motion
2.90439 °/min
Orbital period
123.95 mins
BSTAR
-0.00011055
Loading maneuver chart data...
Computing Atmospheric mass density...
Loading historical data...
Loading historical data...
Loading historical data...
Loading historical data...
Loading historical data...
Loading historical data...
Loading historical data...
Other satellites on launch #2 in the year 1958 (1958-03-17 UTC)

Documentation

Showing up to 5 results
|